Regional Weather Roundup
Issued by NWS

Home | Current Version | Previous Version | Text Only | Print | Product List | Glossary Off
Versions: 1 2 3 4 5 6 7 8 9 10 11 12 13 14 15 16 17 18 19 20 21 22 23 24 25 26 27 28 29 30 31 32 33 34 35 36 37 38 39 40 41 42 43 44 45 46 47 48 49 50

294
ASUS43 KFSD 212010
RWRSD

WEATHER ROUNDUP FOR SOUTH DAKOTA
NATIONAL WEATHER SERVICE SIOUX FALLS SD
300 PM CDT THU MAY 21 2015

NOTE: "FAIR" INDICATES FEW OR NO CLOUDS BELOW 12,000 FEET WITH NO
SIGNIFICANT WEATHER AND/OR OBSTRUCTIONS TO VISIBILITY.


SDZ001>005-009-010-012>017-212100-
NORTHWEST AND NORTH CENTRAL SOUTH DAKOTA

CITY           SKY/WX    TMP DP  RH WIND       PRES   REMARKS
BUFFALO          N/A     66  27  23 SE16G23   30.12F
FAITH            N/A     66  30  26 SE16G23   30.19F
MOBRIDGE       SUNNY     74  30  19 W9        30.14F
$$

SDZ012>016-024>037-041>051-057-063-072>074-212100-
SOUTHWEST AND SOUTH CENTRAL SOUTH DAKOTA

CITY           SKY/WX    TMP DP  RH WIND       PRES   REMARKS
RAPID CTY ARPT SUNNY     61  27  27 SE10      30.20F
PIERRE         SUNNY     69  34  27 MISG      30.19F
CUSTER         SUNNY     52  32  46 E12       30.21S
ELLSWORTH AFB  SUNNY     61  27  27 S15G22    30.19F
PHILIP         SUNNY     65  33  30 S6        30.20F
PINE RIDGE     PTSUNNY   60  38  43 SE6       30.20F
SPEARFISH      FAIR      61  28  29 E20G32    30.16S
WINNER         FAIR      68  31  25 CALM      30.21F
$$

SDZ004>011-016>023-039-040-212100-
NORTHEAST SOUTH DAKOTA

CITY           SKY/WX    TMP DP  RH WIND       PRES   REMARKS
ABERDEEN       SUNNY     74  41  30 NW12G20   30.14F
WATERTOWN      SUNNY     71  39  31 NW12      30.14S
BROOKINGS      SUNNY     70  36  28 NW18      30.14F
SISSETON         N/A     72  26  18 N14G24    30.11F
$$

SDZ017-020-022-023-036>040-048>070-212100-
SOUTHEAST SOUTH DAKOTA

CITY           SKY/WX    TMP DP  RH WIND       PRES   REMARKS
SIOUX FALLS    MOSUNNY   74  35  24 NW20G29   30.13F
HURON          SUNNY     74  34  23 NW15G23   30.14F
CHAMBERLAIN    SUNNY     67  33  28 CALM      30.19F
MITCHELL       SUNNY     74  34  23 NW10G18   30.17F
YANKTON        SUNNY     70  39  32 W10G21    30.17F
$$

ABBREVIATIONS USED IN REMARKS
   TC - TEMPERATURE IN CELSIUS
  WCI - WIND CHILL INDEX
   HX - HEAT INDEX
  VSB - VISIBILITY




USA.gov is the U.S. government's official web portal to all federal, state and local government web resources and services.